Location: Invercargill
(46.4000°S, 168.3500°E)
Time: 10:38:17
(UTC+12:00)

Cosmos 2237 Rocket - Pass Details

Date: 14 May 2021
Orbit: 836 x 848 km, 71.0° (Epoch: 15 June)

Event Time Altitude Azimuth Distance (km) Brightness Sun altitude
Rises 20:35:28 0° 300° (WNW) 3,406 6.1 -32.7°
Reaches altitude 10° 20:38:15 10° 288° (WNW) 2,481 5.3 -33.2°
Maximum altitude 20:43:07 28° 229° (SW) 1,548 3.9 -34.0°
Enters shadow 20:45:03 23° 197° (SSW) 1,734 4.0 -34.3°
